Wind_Speed
48 51 47 43 32 28 36 44 59 67 55 51 50 49 46 42 41 38 36 35 33 32 33 30 29 27 24 24 26 27 28 28 28 28 29 30 31 32 34 35 36 38 38 39
52 48 45 48 41 38 35 34 55 55 61 55 57 53 53 50 43 43 43 44 42 38 34 34 32 30 30 29 31 31 31 31 32 32 33 33 35 37 39 40 40 41 42 41
48 44 46 45 47 47 43 33 40 43 39 64 67 65 60 58 49 52 51 48 45 40 35 32 32 32 33 33 34 35 37 38 38 38 37 37 39 40 43 44 44 45 45 46
50 50 47 44 44 43 42 44 39 38 36 46 57 65 67 57 48 52 49 45 42 38 33 35 35 35 35 34 36 37 38 41 42 40 39 40 42 42 44 46 46 45 47 50
51 50 48 46 44 42 42 41 41 38 36 36 49 57 54 56 55 49 48 45 44 39 36 35 37 37 37 36 35 35 37 39 42 42 42 42 42 42 44 47 50 53 55 58
37 46 46 45 46 44 45 42 44 45 41 39 37 46 56 50 48 48 50 49 45 40 39 38 39 37 38 41 36 42 40 41 40 41 41 42 45 49 51 54 54 55 57 60
43 48 48 48 43 36 36 41 43 42 41 40 38 39 44 45 45 49 55 53 48 43 42 37 40 41 39 41 44 44 40 40 43 46 47 49 51 53 55 58 59 60 62 63
41 50 49 51 53 45 32 32 44 48 47 44 41 39 40 44 46 51 52 53 52 42 40 40 43 41 42 47 45 43 43 45 47 48 48 51 53 55 58 60 61 62 64 65
54 40 48 53 53 53 52 42 35 30 47 46 46 49 51 50 58 47 58 56 42 44 47 44 54 46 51 49 53 43 45 46 47 49 51 54 56 58 61 62 63 65 65 65
54 54 45 52 56 55 58 49 50 38 42 45 45 42 45 44 44 49 55 45 44 53 52 49 51 52 47 41 39 41 45 47 51 54 56 58 60 62 61 61 63 63 63 62
45 50 48 43 48 46 43 40 43 43 40 31 31 35 36 40 41 44 43 41 44 46 45 42 42 41 38 37 41 46 49 52 55 57 58 59 60 59 59 59 59 59 58 58
59 42 45 47 47 45 48 45 41 42 42 35 30 27 30 31 32 35 36 37 37 38 39 37 36 37 39 42 45 49 51 54 55 57 57 56 56 56 55 55 55 56 57 58
57 64 46 43 53 54 50 41 43 41 41 39 40 38 32 29 25 28 33 36 36 37 39 38 37 40 43 45 47 50 52 53 52 52 51 53 52 52 53 54 55 56 59 61
62 62 63 59 54 48 48 43 37 35 34 35 38 37 37 39 34 30 29 30 31 31 32 34 38 41 44 44 46 48 48 48 47 49 50 50 51 51 53 55 57 57 57 59
63 40 48 60 56 44 46 39 31 33 34 34 31 33 33 35 37 39 39 36 34 34 37 38 40 42 44 44 44 44 43 44 46 47 48 50 52 54 56 55 56 59 62 65
69 62 35 39 36 39 36 36 38 39 38 35 35 37 38 39 39 39 37 40 41 41 43 42 43 43 43 44 45 44 43 46 48 50 52 53 53 54 57 58 60 62 64 63
57 55 50 50 43 40 39 36 37 36 36 37 39 38 39 39 41 42 41 39 40 41 42 41 40 40 43 44 44 46 48 50 51 52 53 54 55 56 59 61 61 60 56 49
28 33 39 44 47 43 40 37 38 36 34 36 35 40 42 41 39 38 39 40 41 41 40 40 40 41 42 44 45 48 50 51 52 54 55 57 58 60 60 57 52 43 44 44
37 35 36 37 37 36 35 34 33 31 33 32 33 34 34 33 33 33 33 34 35 36 38 38 39 40 43 45 47 49 51 52 55 56 58 60 59 55 48 38 40 42 48 53
31 31 31 31 32 32 33 34 34 32 31 31 32 31 31 32 32 30 31 31 32 34 36 38 41 44 47 50 52 52 53 55 59 60 57 48 35 32 36 39 45 50 56 61
33 30 29 25 26 24 24 27 25 27 26 25 24 24 25 25 26 28 30 33 36 39 41 43 46 49 52 52 52 54 55 54 46 32 27 31 32 36 41 47 52 56 59 63
38 35 25 23 23 23 18 16 16 17 18 20 20 22 23 25 28 31 35 39 42 44 46 49 52 53 54 54 50 42 30 24 26 27 29 35 40 45 49 52 56 60 63 67
14 18 19 20 22 20 18 19 20 19 20 22 23 25 27 29 32 37 41 42 45 48 50 51 50 44 34 22 18 22 22 24 28 34 40 44 48 51 55 59 64 67 72 75
5 5 8 14 13 14 16 18 19 20 21 23 26 30 31 32 35 39 41 43 45 44 33 20 15 16 17 18 19 22 27 32 38 42 45 49 53 57 61 65 69 74 78 82
6 5 8 10 15 19 20 21 21 23 22 25 28 30 31 33 34 35 35 28 18 16 17 17 17 16 17 21 25 31 36 38 42 46 50 54 60 65 67 69 75 79 82 86
13 9 15 20 25 25 26 27 29 28 30 32 31 31 31 28 27 23 19 18 18 18 17 16 17 20 24 29 33 36 40 44 48 52 57 61 66 69 71 74 80 84 89 92
Wind_Direction
221 224 225 224 212 208 221 220 213 213 220 225 225 233 230 223 227 231 235 238 232 231 235 238 240 242 247 250 255 255 256 260 265 265 264 267 267 269 271 275 276 277 280 284
216 221 225 226 232 227 226 223 219 219 216 229 232 232 231 230 224 233 236 240 241 240 240 240 241 242 246 251 258 260 258 262 265 265 267 268 267 270 274 277 279 280 282 284
222 215 220 223 233 235 235 230 217 223 231 227 232 232 232 235 232 230 233 240 233 232 236 239 243 245 247 254 260 260 260 262 263 266 267 268 270 271 274 277 280 283 285 287
223 215 214 218 228 232 235 233 230 233 234 229 225 228 232 238 236 230 233 230 230 234 236 242 246 250 253 257 256 262 260 263 262 268 271 273 275 277 278 280 285 287 289 291
215 215 215 219 219 224 228 232 233 230 223 237 228 229 233 239 241 233 231 236 237 237 240 246 248 251 254 256 259 263 267 265 268 272 275 277 279 281 283 284 285 287 288 288
219 219 215 216 221 227 220 221 220 222 221 229 245 232 233 232 234 236 235 234 240 240 240 241 245 254 256 266 259 264 267 267 268 273 273 274 279 281 283 282 284 285 285 287
204 214 213 214 212 207 219 223 220 218 221 227 233 231 233 233 233 233 219 240 236 240 240 247 251 256 257 260 259 260 265 271 272 272 276 280 281 283 285 285 286 287 289 290
204 206 206 206 208 212 205 216 215 217 218 221 223 225 230 233 233 228 228 230 236 242 240 243 244 252 253 261 258 266 270 271 274 277 279 281 283 285 285 286 289 290 290 290
212 210 216 212 212 215 213 217 209 226 219 219 223 225 229 228 226 228 233 222 234 243 244 246 247 242 250 260 252 262 268 274 279 280 282 283 284 284 284 286 288 288 288 290
208 205 211 214 218 225 224 231 230 233 216 217 219 223 229 231 232 229 230 233 232 237 243 242 242 251 256 262 267 269 273 277 280 281 282 282 283 283 285 287 288 289 290 291
201 200 197 208 212 213 213 204 214 216 213 220 218 219 225 229 232 232 235 237 238 239 243 247 249 253 264 270 271 272 276 277 278 280 282 283 284 286 287 288 288 289 291 292
202 194 211 212 219 217 224 208 220 225 228 244 241 237 238 237 235 235 238 241 243 246 247 250 255 263 269 271 275 276 276 277 280 281 283 284 284 285 286 287 288 290 291 293
209 206 206 214 223 226 226 228 237 241 247 250 248 245 252 254 249 245 247 250 255 258 262 266 269 270 271 271 274 277 279 279 281 284 283 282 283 284 286 288 290 291 293 294
213 217 218 222 223 227 228 233 237 244 249 255 258 258 257 258 257 253 256 258 259 265 267 267 267 267 270 271 272 274 277 281 281 280 281 284 286 289 292 293 293 296 299 301
209 204 220 228 227 232 236 241 230 234 243 243 243 242 242 240 244 250 254 257 262 266 267 266 267 269 272 275 277 280 280 279 282 284 287 290 293 294 294 297 301 303 305 304
203 200 192 195 206 218 218 229 238 241 235 234 234 237 239 241 242 247 259 262 260 261 263 268 272 274 277 278 279 284 286 288 290 294 295 295 297 299 301 302 304 304 302 302
216 225 224 229 230 226 232 236 237 236 235 234 231 233 237 241 243 246 253 260 262 265 268 273 276 278 280 283 286 289 291 294 295 296 296 298 300 302 304 303 301 301 301 304
199 207 217 224 230 238 234 229 230 231 230 231 233 237 240 244 250 254 258 261 266 270 274 277 278 280 283 287 289 291 292 294 295 297 300 302 301 299 299 298 300 303 306 307
203 209 213 221 228 230 229 228 231 232 234 236 238 239 245 249 253 259 264 268 270 272 275 279 281 284 287 289 291 293 295 296 299 300 300 298 298 298 301 303 306 306 308 311
200 201 208 217 225 229 230 231 232 235 234 235 238 243 248 255 260 263 268 273 278 281 284 286 287 288 290 292 293 295 296 298 298 297 297 301 304 304 306 307 308 311 314 314
199 201 202 211 213 218 223 224 224 230 234 238 242 247 252 259 264 271 278 283 285 285 285 285 287 290 291 292 294 296 297 297 299 301 304 306 307 306 310 312 312 311 310 309
194 203 207 215 220 207 205 215 228 233 238 246 249 255 260 266 274 279 283 285 285 285 286 287 289 290 290 291 293 296 297 301 304 305 305 308 312 312 311 310 308 307 307 307
149 164 166 187 198 205 215 224 237 251 251 251 253 259 265 271 276 278 277 277 278 279 280 280 284 287 287 288 292 296 298 300 305 311 313 312 311 310 310 309 307 306 306 307
204 198 193 209 211 211 224 235 242 249 255 260 261 261 265 268 279 277 275 274 275 281 285 281 281 287 292 295 296 299 305 309 309 310 311 311 311 311 309 308 308 309 309 309
283 271 258 250 241 242 246 250 260 266 267 266 270 271 269 271 270 269 272 277 267 268 277 283 288 289 292 298 302 305 305 307 309 310 310 310 310 309 309 308 309 310 310 310
263 249 266 254 261 266 267 265 267 266 265 266 264 264 267 269 268 262 256 268 275 278 281 283 289 297 299 300 301 305 308 309 308 307 307 307 308 308 306 306 309 310 310 310
Height
5718 5725 5732 5741 5743 5750 5756 5764 5774 5782 5788 5793 5795 5800 5809 5815 5818 5823 5827 5831 5834 5835 5838 5842 5844 5846 5848 5850 5849 5849 5848 5848 5848 5847 5847 5847 5845 5844 5841 5840 5838 5836 5833 5831
5709 5718 5727 5730 5736 5742 5748 5756 5764 5771 5779 5786 5790 5795 5800 5808 5811 5816 5820 5824 5826 5829 5833 5836 5837 5840 5841 5842 5842 5843 5842 5842 5842 5840 5840 5839 5838 5837 5835 5832 5830 5828 5826 5823
5705 5715 5718 5726 5730 5737 5743 5751 5758 5769 5776 5779 5781 5786 5791 5797 5801 5807 5813 5816 5817 5823 5827 5829 5831 5832 5834 5835 5836 5836 5836 5835 5834 5833 5832 5831 5830 5830 5829 5825 5822 5820 5817 5814
5695 5705 5711 5720 5726 5732 5737 5745 5753 5760 5765 5766 5772 5775 5783 5789 5795 5800 5805 5809 5812 5816 5820 5823 5823 5824 5826 5827 5827 5827 5827 5827 5827 5826 5825 5825 5823 5820 5819 5817 5814 5810 5808 5805
5688 5697 5705 5714 5722 5727 5732 5738 5745 5751 5755 5760 5763 5770 5776 5781 5786 5792 5798 5802 5806 5810 5813 5814 5816 5817 5818 5818 5819 5819 5818 5819 5819 5819 5817 5815 5812 5810 5808 5806 5804 5800 5797 5793
5681 5689 5697 5707 5715 5720 5726 5731 5737 5742 5747 5750 5755 5761 5764 5773 5780 5785 5789 5794 5798 5802 5805 5806 5808 5810 5810 5811 5811 5812 5811 5811 5810 5809 5807 5805 5803 5801 5798 5795 5792 5788 5784 5780
5675 5680 5690 5699 5708 5713 5717 5724 5729 5733 5736 5741 5747 5753 5758 5765 5771 5775 5780 5786 5790 5793 5795 5798 5800 5802 5801 5803 5803 5803 5803 5803 5802 5800 5798 5795 5792 5788 5786 5784 5780 5775 5772 5768
5668 5672 5682 5691 5700 5711 5714 5718 5723 5724 5729 5735 5740 5745 5751 5758 5763 5766 5773 5777 5781 5784 5789 5791 5792 5793 5794 5795 5795 5794 5794 5793 5791 5790 5787 5783 5780 5778 5776 5773 5769 5765 5759 5755
5659 5668 5678 5687 5695 5702 5707 5713 5717 5721 5725 5730 5735 5740 5745 5752 5758 5762 5765 5767 5771 5776 5778 5780 5783 5783 5784 5784 5784 5784 5784 5782 5781 5778 5775 5772 5770 5767 5765 5761 5756 5751 5747 5742
5653 5666 5673 5680 5687 5693 5701 5706 5712 5716 5721 5726 5730 5734 5738 5743 5749 5752 5758 5759 5762 5766 5769 5770 5772 5774 5773 5772 5772 5774 5774 5772 5769 5767 5765 5762 5759 5756 5751 5746 5743 5739 5734 5729
5652 5660 5669 5674 5679 5689 5692 5695 5703 5710 5716 5720 5724 5729 5733 5737 5742 5746 5749 5752 5754 5756 5759 5761 5762 5765 5765 5765 5766 5765 5762 5760 5759 5756 5754 5751 5747 5742 5737 5733 5729 5725 5720 5716
5642 5652 5662 5667 5674 5683 5691 5693 5698 5703 5711 5713 5718 5725 5728 5733 5736 5739 5742 5744 5746 5749 5752 5753 5754 5756 5756 5757 5756 5755 5753 5752 5749 5746 5742 5738 5734 5730 5725 5722 5718 5713 5709 5704
5636 5644 5653 5660 5668 5674 5680 5686 5692 5697 5701 5706 5714 5720 5724 5727 5730 5732 5735 5737 5739 5741 5744 5746 5747 5747 5747 5747 5746 5744 5743 5740 5737 5734 5730 5727 5722 5718 5715 5711 5708 5703 5698 5692
5632 5641 5649 5657 5666 5674 5678 5683 5687 5692 5697 5702 5706 5712 5717 5721 5723 5725 5727 5730 5732 5735 5737 5738 5739 5739 5739 5737 5735 5733 5730 5728 5725 5721 5719 5715 5711 5708 5705 5701 5696 5690 5684 5678
5631 5641 5646 5653 5662 5667 5673 5678 5682 5687 5693 5698 5705 5706 5710 5712 5714 5718 5722 5725 5726 5728 5728 5729 5729 5729 5729 5727 5724 5721 5719 5716 5715 5712 5709 5705 5702 5698 5692 5687 5681 5675 5668 5661
5621 5631 5639 5646 5654 5660 5665 5670 5676 5681 5685 5693 5696 5701 5701 5703 5705 5709 5714 5717 5718 5718 5718 5719 5718 5717 5716 5715 5712 5711 5709 5708 5704 5701 5697 5693 5687 5682 5677 5673 5667 5659 5651 5645
5621 5627 5634 5642 5650 5655 5658 5665 5670 5675 5680 5684 5688 5690 5693 5697 5700 5703 5705 5707 5707 5708 5708 5708 5707 5707 5705 5704 5703 5702 5699 5695 5693 5689 5684 5679 5675 5669 5664 5657 5650 5643 5636 5630
5618 5625 5629 5636 5642 5646 5654 5660 5666 5670 5673 5676 5680 5681 5685 5691 5694 5696 5697 5698 5698 5699 5699 5699 5698 5698 5697 5695 5693 5690 5687 5684 5680 5676 5671 5666 5660 5653 5646 5642 5636 5631 5626 5620
5613 5620 5627 5633 5639 5644 5650 5655 5662 5665 5669 5673 5675 5677 5681 5685 5686 5689 5690 5690 5691 5691 5692 5692 5691 5690 5687 5684 5681 5678 5675 5671 5667 5662 5656 5650 5644 5639 5634 5630 5626 5621 5615 5608
5610 5617 5625 5631 5635 5640 5646 5650 5655 5659 5663 5667 5669 5673 5677 5679 5680 5682 5683 5683 5684 5684 5684 5683 5681 5678 5675 5673 5670 5666 5661 5656 5651 5646 5642 5637 5632 5628 5624 5621 5615 5610 5604 5595
5608 5614 5622 5627 5632 5638 5642 5646 5651 5655 5663 5662 5665 5668 5671 5673 5675 5675 5676 5676 5676 5675 5674 5672 5670 5667 5664 5659 5655 5651 5647 5643 5639 5635 5631 5629 5624 5621 5615 5610 5605 5599 5591 5582
5607 5614 5620 5625 5631 5637 5641 5644 5650 5653 5655 5658 5661 5664 5665 5666 5667 5667 5667 5666 5665 5663 5662 5659 5656 5652 5649 5645 5641 5639 5637 5635 5633 5629 5626 5622 5616 5612 5606 5599 5592 5585 5577 5567
5610 5615 5620 5627 5631 5634 5638 5642 5646 5649 5652 5653 5655 5657 5658 5658 5658 5658 5657 5656 5654 5652 5650 5646 5644 5640 5637 5636 5634 5634 5632 5629 5626 5621 5617 5612 5607 5600 5593 5585 5578 5570 5561 5551
5611 5614 5619 5625 5629 5632 5636 5638 5640 5643 5645 5647 5649 5649 5649 5649 5649 5648 5647 5645 5642 5641 5639 5636 5635 5634 5632 5631 5629 5627 5624 5621 5617 5612 5607 5601 5594 5587 5580 5572 5563 5553 5544 5533
5607 5612 5616 5620 5624 5627 5630 5633 5634 5636 5638 5639 5639 5639 5639 5638 5638 5638 5637 5637 5635 5634 5633 5632 5630 5629 5627 5625 5622 5619 5616 5612 5607 5601 5595 5589 5582 5574 5564 5555 5545 5534 5523 5513
5603 5606 5612 5614 5618 5622 5624 5625 5626 5627 5628 5628 5629 5630 5630 5631 5631 5631 5631 5631 5630 5629 5628 5627 5625 5623 5620 5618 5614 5610 5605 5600 5595 5589 5582 5575 5567 5558 5548 5537 5525 5515 5502 5490